Zurück zum Katalog

SAKURA 1A

CS-1A

AktivKommunikationGEO
NORAD 10516·PAYLOAD·🇯🇵 Japan

Gestartet Dec 15, 1977 von Cape Canaveral Space Force Station

Loading…

TLE

AktuellSource: Space-Track

Epoche: Sep 13, 2026, 22:17 UTC

1 10516U 77118A   26256.92890943 -.00000248  00000-0  00000+0 0  9996
2 10516   7.1792 296.3979 0001179 250.2239 117.0673  0.98916938136476

Verfolge SAKURA 1A in Echtzeit mit AllMySat

Download on the App Store